SCP
0 0 0 0 0 0 0 0 0 0 0 0 0 0 0 0 0 0 0 0 0 0 0 0 0 0 0 0 0 0 0 0 0 0 0 0 0 0 0 0 0 0 0
0 0 0 0 0 0 0 0 0 0 0 0 0 0 0 0 0 0 0 0 0 0 0 0 0 0 0 0 0 0 0 0 0 0 0 0 0 0 0 0 0 0 0
0 0 0 0 0 0 0 0 0 0 0 0 0 0 0 0 0 0 0 0 0 0 0 0 0 0 0 0 0 0 0 0 0 0 0 0 0 0 0 0 0 0 0
0 0 0 0 0 0 0 0 0 0 0 0 0 0 0 0 0 0 0 0 0 0 0 0 0 0 0 0 0 0 0 0 0 0 0 0 0 0 0 0 0 0 0
0 0 0 0 0 0 0 0 0 0 0 0 0 0 0 0 0 0 0 0 0 0 0 0 0 0 0 0 0 0 0 0 0 0 0 0 0 0 0 0 0 0 0
0 0 0 0 0 0 0 0 0 0 0 0 0 0 0 0 0 0 0 0 0 0 0 0 0 0 0 0 0 0 0 0 0 0 0 0 0 0 0 0 0 0 0
0 0 0 0 0 1 1 1 1 0 0 0 0 0 0 0 0 0 0 0 0 0 0 0 0 0 0 0 0 0 0 0 0 0 0 0 0 0 0 0 0 0 0
0 0 0 1 1 1 1 1 1 1 1 1 0 0 0 0 0 0 0 0 0 0 0 0 0 0 0 0 0 0 0 0 0 0 0 0 0 0 0 0 0 0 0
0 0 1 1 1 1 1 1 1 1 1 1 1 0 0 0 0 0 0 0 0 0 0 0 0 0 0 0 0 0 0 0 0 0 0 0 0 0 0 0 0 0 0
0 1 1 1 1 1 1 1 1 1 1 1 1 1 0 0 0 0 0 0 0 0 0 0 0 0 0 0 0 0 0 0 0 0 0 0 0 0 0 0 0 0 0
0 0 1 1 1 1 1 1 1 1 1 1 1 1 1 0 0 0 0 0 0 0 0 0 0 0 0 0 0 0 0 0 0 0 0 0 0 0 0 0 0 0 0
0 0 0 1 1 1 1 1 1 1 1 1 1 1 1 1 0 0 0 0 0 0 0 0 0 0 0 0 0 0 0 0 0 0 0 0 0 0 0 0 0 0 0
0 0 0 1 1 1 1 1 1 1 1 1 1 1 1 1 1 0 0 0 0 0 0 0 0 0 0 0 0 0 0 0 0 0 0 0 0 0 0 0 0 0 0
0 0 0 1 1 1 1 1 1 1 1 1 1 1 1 1 1 1 0 0 0 0 0 0 0 0 0 0 0 0 0 0 0 0 0 0 0 0 0 0 0 0 0
0 0 0 0 1 1 1 1 1 1 1 1 1 1 1 1 1 1 1 0 0 0 0 0 0 0 0 0 0 0 0 0 0 0 0 0 0 0 0 0 0 0 0
0 0 0 0 0 1 1 1 1 1 1 1 1 1 1 1 1 1 1 0 0 0 0 0 0 0 0 0 0 0 0 0 0 0 0 0 0 0 0 0 0 0 0
0 0 0 0 0 0 1 1 1 1 1 1 1 1 1 1 1 1 1 0 0 0 0 0 0 0 0 0 0 0 0 0 0 0 0 0 0 0 0 0 0 0 0
0 0 0 0 0 0 0 1 1 1 1 1 1 1 1 1 1 1 0 0 0 0 0 0 0 0 0 0 0 0 0 0 0 0 0 0 0 0 0 0 0 0 0
1 0 0 0 0 0 0 1 1 1 1 1 1 1 1 1 1 1 0 0 0 0 0 0 0 0 0 0 0 0 0 0 0 0 0 0 0 0 0 0 0 0 0
1 1 1 0 0 0 0 1 1 1 1 1 1 1 1 1 1 0 0 0 0 0 0 0 0 0 0 0 0 0 0 0 0 0 0 0 0 0 0 0 0 0 0
1 1 1 1 0 0 0 1 1 1 1 1 1 1 1 0 0 0 0 0 0 0 0 0 0 0 0 0 0 0 0 0 0 0 0 0 0 0 0 0 0 0 0
1 1 1 0 0 0 0 0 0 0 0 0 0 0 0 0 0 0 0 0 0 0 0 0 0 0 0 0 0 0 0 0 0 0 0 0 0 0 0 0 0 0 0
1 1 1 0 0 0 0 0 0 0 0 0 0 0 0 0 0 0 0 0 0 0 0 0 0 0 0 0 0 0 0 0 0 0 0 0 0 0 0 0 0 0 0
1 1 1 0 0 0 0 0 0 0 0 0 0 0 0 0 0 0 0 0 0 0 0 0 0 0 0 0 0 0 0 0 0 0 0 0 0 0 0 0 0 0 0
1 1 0 0 0 0 0 0 0 0 0 0 0 0 0 0 0 0 0 0 0 0 0 0 0 0 0 0 0 0 0 0 0 0 0 0 0 0 0 0 0 0 0
1 1 0 0 0 0 0 0 0 0 0 0 0 0 0 0 0 0 0 0 0 0 0 0 0 0 0 0 0 0 0 0 0 0 0 0 0 0 0 0 0 0 0
Wind_Speed
9 8 8 8 7 6 7 7 7 6 5 3 3 2 2 1 1 2 2 2 2 3 3 2 2 2 1 1 2 2 2 1 1 1 2 2 1 2 2 3 3 4 5
7 8 8 8 9 9 8 8 7 7 6 4 3 3 3 2 2 1 2 2 3 3 3 3 2 2 1 1 1 2 1 1 1 1 1 2 3 2 2 2 3 5 4
11 10 10 10 10 10 11 9 8 7 7 6 3 3 2 2 1 1 1 2 3 3 2 3 2 2 2 2 2 2 2 1 0 1 2 1 2 3 2 2 2 3 3
11 11 11 11 12 12 10 9 8 8 6 6 5 5 4 3 3 2 2 2 3 3 3 3 3 3 2 2 2 3 2 2 1 1 1 2 2 1 2 2 2 3 4
12 13 13 12 11 10 10 9 8 8 7 7 7 6 4 3 2 2 2 2 2 3 3 3 3 3 3 3 2 2 3 2 3 2 2 2 1 2 2 3 3 2 3
12 11 10 9 9 9 9 9 8 8 7 8 7 7 6 5 4 3 3 2 2 2 3 3 3 3 3 3 3 3 3 3 3 3 2 2 2 3 3 4 4 4 3
11 10 11 12 11 11 11 10 10 9 8 8 8 7 7 7 6 5 4 3 2 2 3 3 3 3 4 4 3 3 4 4 4 4 3 3 3 3 3 3 3 3 3
10 11 12 12 12 12 12 11 11 9 9 9 8 6 6 5 4 5 4 4 3 3 3 3 3 4 4 4 3 3 4 3 4 5 4 3 4 3 3 3 2 3 3
10 11 11 11 12 12 12 12 11 10 9 9 8 6 6 6 5 4 4 3 3 3 3 3 3 3 3 3 3 3 3 3 3 3 3 3 3 3 4 3 3 3 3
8 9 9 10 10 10 10 10 10 10 9 8 8 7 6 6 5 4 4 4 4 4 3 3 3 3 3 3 3 3 3 3 3 2 3 3 2 2 2 3 3 3 4
7 7 7 8 8 8 8 9 8 8 7 8 7 6 6 6 5 5 5 5 4 4 4 4 3 2 2 2 2 3 2 2 3 2 3 4 3 2 2 2 2 3 3
4 5 6 6 7 8 8 8 7 8 7 7 7 7 6 6 6 5 5 5 4 4 4 3 3 3 3 2 3 3 2 2 2 2 2 3 2 2 2 2 3 3 3
4 4 5 6 6 7 7 7 7 7 7 7 7 6 6 6 6 6 5 5 4 4 3 3 3 3 3 3 3 3 2 2 2 2 2 2 2 2 2 2 2 2 2
4 5 5 4 5 5 6 6 6 6 7 7 7 7 6 6 6 6 5 5 4 4 3 3 3 3 3 3 3 3 3 2 2 2 1 1 1 2 3 2 2 2 2
4 4 4 4 4 5 5 5 5 5 6 7 6 6 5 4 4 4 4 4 4 4 3 3 2 2 2 2 2 3 3 2 1 1 1 0 1 1 1 1 1 1 1
3 3 3 3 3 4 4 5 5 5 6 6 5 4 3 3 3 3 4 4 3 3 3 2 2 1 1 1 1 2 1 1 1 0 1 1 2 2 2 2 2 1 0
4 3 3 3 2 3 4 4 4 4 5 5 5 4 4 3 2 3 4 4 3 3 2 2 1 1 0 1 1 2 2 1 1 1 1 2 2 2 2 3 3 4 4
3 3 3 3 3 3 4 4 4 5 5 5 4 4 4 4 3 4 3 3 3 3 2 2 1 1 1 2 2 3 3 2 2 1 1 1 2 3 2 2 3 3 3
3 3 3 4 4 4 4 5 5 5 5 4 4 4 5 5 4 4 3 3 3 3 3 2 2 1 1 2 3 4 3 3 2 2 3 3 2 4 4 3 3 3 3
4 4 4 5 6 4 5 6 5 5 4 4 4 4 4 4 4 4 3 3 4 4 4 4 3 2 2 3 3 4 3 3 2 3 3 5 5 5 4 3 3 3 3
5 5 6 5 4 4 6 7 6 5 4 5 5 5 5 5 5 5 4 4 4 5 4 4 4 4 4 4 4 3 3 3 2 2 3 3 6 6 5 4 3 2 2
6 6 6 5 4 4 6 7 6 5 5 6 6 6 6 5 5 6 5 5 5 5 4 4 4 4 4 5 5 5 4 3 3 2 2 3 6 7 7 5 5 5 4
6 6 7 7 5 4 6 7 5 5 7 7 7 7 7 6 5 5 5 5 4 4 3 3 3 3 3 4 6 6 6 5 4 3 5 6 7 7 6 8 8 5 4
6 6 7 7 5 5 6 6 5 6 8 8 7 6 7 7 6 5 4 4 4 3 3 3 3 2 3 3 3 3 4 5 4 3 6 8 8 7 6 6 5 4 4
5 6 7 6 5 5 5 5 5 7 8 7 7 7 7 6 6 6 5 5 4 2 3 2 2 2 2 3 3 3 3 2 3 4 4 5 5 5 5 5 5 4 4
5 6 6 6 5 5 6 5 5 6 7 7 6 5 5 5 5 6 7 10 8 9 9 6 4 4 4 5 6 7 7 6 6 5 4 4 4 4 3 4 4 4 4
Wind_Direction
206 196 191 186 179 178 179 180 177 171 158 151 158 159 183 189 193 200 193 186 172 166 158 158 149 140 140 156 132 110 100 83 90 71 8 345 287 239 234 229 226 232 234
201 197 191 188 185 187 189 185 183 177 175 173 162 162 157 173 185 190 187 188 181 183 177 167 170 160 146 140 136 123 108 93 104 108 64 354 342 322 261 233 230 237 236
203 199 196 195 191 192 193 194 188 182 180 166 138 115 98 90 113 168 207 206 193 197 195 182 177 177 169 181 187 166 157 163 160 139 138 138 271 308 313 263 243 241 238
204 199 197 197 197 197 192 190 185 182 177 165 164 163 170 183 197 193 201 209 201 202 206 202 197 194 187 199 208 189 179 167 199 211 195 187 183 216 306 306 264 247 244
204 202 201 199 197 191 188 188 182 183 178 176 177 173 179 183 174 173 192 210 214 211 211 206 207 203 202 213 213 195 193 189 196 199 192 194 197 203 224 282 299 287 252
208 205 198 189 189 186 185 183 182 188 183 182 182 182 183 179 174 188 202 218 221 227 222 209 210 211 213 217 218 215 211 212 212 208 201 199 204 206 207 244 274 286 278
204 200 191 189 187 186 187 185 185 192 188 188 191 191 190 185 191 193 201 207 217 227 228 216 212 217 222 222 214 215 224 217 219 222 221 221 227 214 203 226 258 273 285
200 200 197 194 190 189 187 185 188 193 191 194 198 193 190 191 198 195 192 203 215 225 217 208 217 225 228 230 213 222 232 225 226 233 227 230 233 217 211 212 225 273 283
197 198 193 190 188 187 187 186 187 190 193 197 192 188 189 194 200 196 193 206 220 226 217 213 219 225 226 225 214 229 240 233 234 240 237 238 242 227 225 220 213 220 265
190 189 190 190 190 187 183 182 185 190 190 190 193 197 194 199 198 187 194 207 218 222 212 218 220 221 225 223 216 234 243 239 250 245 247 248 248 244 233 226 224 221 230
189 188 186 181 177 174 176 181 184 183 182 186 190 195 190 189 188 196 204 209 214 211 211 214 216 218 227 222 216 234 233 238 258 261 255 262 260 250 247 232 225 227 222
171 170 162 158 164 170 174 177 179 185 188 185 187 192 186 180 187 200 205 200 208 212 210 207 212 221 226 219 218 236 237 238 263 273 267 272 271 266 265 250 243 240 226
134 132 132 146 162 166 168 171 180 186 184 179 184 183 181 182 192 201 204 194 200 206 204 200 216 231 231 228 229 228 227 228 244 253 257 278 290 289 283 264 258 254 247
118 120 128 146 152 153 158 168 180 178 174 173 177 183 188 193 198 195 194 191 191 196 204 207 214 227 234 235 232 214 218 224 234 234 238 259 267 277 278 272 265 255 248
103 120 133 147 151 145 152 164 170 166 163 165 174 186 186 186 186 183 183 181 184 195 194 194 210 222 228 243 225 211 204 210 231 244 243 268 341 329 303 300 288 262 253
130 126 124 125 135 138 152 155 157 157 151 157 165 163 158 161 167 170 170 168 174 179 172 180 189 190 243 295 178 166 165 159 175 246 316 343 355 355 9 21 41 60 276
137 134 126 120 123 119 135 152 153 144 144 145 139 133 136 139 138 155 152 158 162 150 145 146 144 158 5 62 119 131 130 111 75 38 5 1 5 12 16 39 45 38 34
128 120 107 98 84 90 105 116 119 126 130 126 128 128 132 138 141 136 140 148 141 130 125 111 128 137 44 91 124 115 106 85 65 48 30 18 7 25 56 61 49 34 24
133 126 119 114 100 95 101 106 106 109 114 117 122 127 133 131 128 129 133 134 122 112 107 97 92 84 29 76 110 115 107 90 57 34 34 36 33 36 63 71 53 32 17
118 116 110 101 98 98 108 112 109 106 107 109 109 109 113 117 117 116 114 111 112 112 104 85 67 58 39 56 94 115 109 94 70 45 38 46 47 38 61 81 72 42 8
113 111 104 96 96 102 110 112 107 104 104 99 93 92 93 100 101 98 94 98 102 98 91 85 67 53 44 46 65 94 109 112 91 65 47 44 51 47 49 67 63 45 39
112 108 100 89 76 82 99 100 99 99 99 96 95 92 87 89 93 94 89 88 97 98 89 81 64 46 41 44 53 73 89 97 97 79 60 56 60 55 47 50 38 39 46
113 106 107 96 75 71 95 99 90 92 94 92 90 89 85 79 80 89 92 88 88 94 90 83 69 45 38 42 53 65 75 78 89 78 67 60 59 58 53 45 43 43 49
114 110 109 103 86 72 80 94 97 96 95 93 91 90 87 81 73 71 74 81 82 93 95 92 84 64 47 38 41 58 72 74 77 72 69 66 61 59 52 44 41 42 42
115 116 117 113 104 91 87 90 95 98 95 93 93 91 89 90 81 70 58 65 56 71 98 91 90 87 67 27 35 67 71 78 85 83 66 56 49 46 40 37 34 33 34
119 116 114 115 112 106 100 93 95 104 107 103 99 99 101 97 93 90 74 56 64 64 66 70 81 69 71 61 64 65 66 68 78 80 71 59 52 44 34 28 24 25 22